Regional Weather Roundup
Issued by NWS

Home | Current Version | Previous Version | Graphics & Text | Print | Product List | Glossary On
Versions: 1 2 3 4 5 6 7 8 9 10 11 12 13 14 15 16 17 18 19 20 21 22 23 24 25 26 27 28 29 30 31 32 33 34 35 36 37 38 39 40 41 42 43 44 45 46 47 48 49 50
000
ASUS45 KBOI 041710
RWRID
WEATHER ROUNDUP FOR IDAHO
NATIONAL WEATHER SERVICE BOISE ID
1000 AM MST WED MAR 04 2015

NOTE: "FAIR" INDICATES FEW OR NO CLOUDS BELOW 12000 FEET
WITH NO SIGNIFICANT WEATHER AND/OR OBSTRUCTIONS TO VISIBILITY

IDZ012-014-041800-
SOUTHWEST IDAHO


CITY           SKY/WX    TMP DP  RH WIND       PRES   REMARKS
BOISE          SUNNY     31  16  54 CALM      30.28R
CALDWELL       SUNNY     32  12  43 NW7       30.32R WCI  26
MOUNTAIN HOME  SUNNY     32  14  47 NW3       30.28R
$$

IDZ016-017-041800-
SOUTHCENTRAL IDAHO


CITY           SKY/WX    TMP DP  RH WIND       PRES   REMARKS
BURLEY         SUNNY     28  11  48 VRB5      30.22R WCI  23
JEROME         SUNNY     25  12  58 S3        30.23R
TWIN FALLS     SUNNY     33  12  41 W15       30.22R WCI  23
$$

IDZ019>023-041800-
SOUTHEAST IDAHO


CITY           SKY/WX    TMP DP  RH WIND       PRES   REMARKS
IDAHO FALLS    SUNNY     21   9  59 N6        30.21R WCI  13
POCATELLO      SUNNY     24  13  62 CALM      30.23R
REXBURG        SUNNY     13   3  64 NE6       30.20R WCI   4
$$

IDZ006-010-011-018-031-032-041800-
CENTRAL IDAHO MOUNTAINS


CITY           SKY/WX    TMP DP  RH WIND       PRES   REMARKS
MCCALL         SUNNY     21   9  59 CALM      30.18R
HAILEY         SUNNY     23   9  54 NW5       30.19R WCI  17
STANLEY          N/A      8  -3  61 N6        30.15S WCI  -2
SALMON         SUNNY     21   9  58 CALM      30.25S
CHALLIS        SUNNY     21   4  47 CALM      30.20S
$$

IDZ002-004-006-007-026-041800-
NORTHERN IDAHO


CITY           SKY/WX    TMP DP  RH WIND       PRES   REMARKS
LEWISTON       SUNNY     32  21  64 E8        30.34R WCI  25
LOWELL           N/A     29  20  69 CALM      30.41S
COEUR D`ALENE  SUNNY     28  19  69 S6        30.27S WCI  22
MULLAN PASS    SUNNY     16   4  59 SW6       30.08R WCI   7
$$



USA.gov is the U.S. government's official web portal to all federal, state and local government web resources and services.